GW2484 Weather Reports


Display with metric or nautical units.
time (UTC)temp
F
wind
direction
speed
MPH
gust
MPH
rain 1hr
in
rain 24hr
in
rain mn
in
humidity
%
barometer
mb
20260904195516 100 212 2.0 11.0 0.00 0.00 0.00 45 1013.1
20260904195007 99 183 3.0 11.0 0.00 0.00 0.00 45 1013.1
20260904194503 99 158 3.0 15.0 0.00 0.00 0.00 44 1013.2
20260904194009 98 178 5.0 15.0 0.00 0.00 0.00 44 1013.2
20260904193507 98 193 2.0 11.0 0.00 0.00 0.00 45 1013.3
20260904193027 98 163 4.0 9.0 0.00 0.00 0.00 44 1013.4
20260904192508 98 172 3.0 12.0 0.00 0.00 0.00 46 1013.4
20260904192004 97 242 3.0 12.0 0.00 0.00 0.00 47 1013.5
20260904191531 97 252 4.0 11.0 0.00 0.00 0.00 46 1013.6
20260904191008 96 161 3.0 10.0 0.00 0.00 0.00 1013.5
20260904190504 96 165 5.0 12.0 0.00 0.00 0.00 1013.5
20260904190019 97 214 3.0 12.0 0.00 0.00 0.00 47 1013.5
20260904185507 97 219 4.0 9.0 0.00 0.00 0.00 47 1013.7
20260904185015 96 199 3.0 13.0 0.00 0.00 0.00 48 1013.8
20260904184515 97 217 6.0 13.0 0.00 0.00 0.00 46 1013.8
20260904184005 98 217 2.0 11.0 0.00 0.00 0.00 47 1013.8
20260904183514 97 157 5.0 11.0 0.00 0.00 0.00 47 1013.9
20260904183010 96 211 4.0 11.0 0.00 0.00 0.00 48 1013.9
20260904182504 96 256 6.0 13.0 0.00 0.00 0.00 48 1014.1
20260904182015 96 284 1.0 13.0 0.00 0.00 0.00 50 1014.0
20260904181510 95 217 4.0 11.0 0.00 0.00 0.00 49 1014.1
20260904181016 96 153 6.0 11.0 0.00 0.00 0.00 51 1014.2
20260904180512 95 204 2.0 11.0 0.00 0.00 0.00 49 1014.3
20260904180007 94 150 4.0 11.0 0.00 0.00 0.00 51 1014.4
20260904175514 95 256 4.0 10.0 0.00 0.00 0.00 49 1014.4
20260904175008 95 205 5.0 11.0 0.00 0.00 0.00 50 1014.5
20260904174505 95 223 4.0 15.0 0.00 0.00 0.00 50 1014.5
20260904174013 95 241 2.0 15.0 0.00 0.00 0.00 52 1014.5
20260904173520 94 229 4.0 13.0 0.00 0.00 0.00 50 1014.7
20260904173037 95 210 5.0 13.0 0.00 0.00 0.00 50 1014.6
20260904172512 94 169 4.0 10.0 0.00 0.00 0.00 49 1014.7
20260904172006 95 246 5.0 14.0 0.00 0.00 0.00 49 1014.9
20260904171525 94 205 4.0 14.0 0.00 0.00 0.00 50 1014.9
20260904171010 94 216 7.0 13.0 0.00 0.00 0.00 49 1015.1
20260904170506 94 243 4.0 14.0 0.00 0.00 0.00 52 1015.0
20260904170038 94 185 4.0 14.0 0.00 0.00 0.00 52 1015.0
20260904165519 93 242 5.0 13.0 0.00 0.00 0.00 53 1014.9
20260904165014 94 176 8.0 13.0 0.00 0.00 0.00 50 1015.1
20260904164521 93 306 6.0 13.0 0.00 0.00 0.00 52 1015.2
20260904164007 93 237 6.0 13.0 0.00 0.00 0.00 53 1015.2
20260904163513 92 212 4.0 11.0 0.00 0.00 0.00 54 1015.2
20260904163019 93 190 4.0 12.0 0.00 0.00 0.00 54 1015.1
20260904162503 92 218 4.0 14.0 0.00 0.00 0.00 54 1015.1
20260904162012 92 203 8.0 13.0 0.00 0.00 0.00 54 1015.2
20260904161509 91 250 7.0 13.0 0.00 0.00 0.00 54 1015.1
20260904161015 91 242 4.0 13.0 0.00 0.00 0.00 55 1015.3
20260904160513 91 208 5.0 14.0 0.00 0.00 0.00 56 1015.3
20260904160010 90 196 7.0 14.0 0.00 0.00 0.00 56 1015.3
20260904155515 90 215 5.0 12.0 0.00 0.00 0.00 56 1015.3
20260904155009 91 162 6.0 15.0 0.00 0.00 0.00 56 1015.3
20260904154510 91 171 5.0 15.0 0.00 0.00 0.00 58 1015.4
20260904154014 90 186 4.0 12.0 0.00 0.00 0.00 58 1015.4
20260904153508 89 250 5.0 10.0 0.00 0.00 0.00 59 1015.4
20260904153028 89 175 5.0 11.0 0.00 0.00 0.00 59 1015.4
20260904152514 88 226 6.0 11.0 0.00 0.00 0.00 61 1015.4
20260904152005 88 210 5.0 11.0 0.00 0.00 0.00 60 1015.4
20260904151528 88 180 4.0 10.0 0.00 0.00 0.00 62 1015.4
20260904151011 87 258 3.0 10.0 0.00 0.00 0.00 63 1015.4
20260904150512 87 207 3.0 10.0 0.00 0.00 0.00 64 1015.5
20260904150027 86 223 3.0 10.0 0.00 0.00 0.00 64 1015.4
20260904145511 86 161 6.0 10.0 0.00 0.00 0.00 65 1015.4
20260904145018 86 210 4.0 10.0 0.00 0.00 0.00 64 1015.4
20260904144524 86 213 2.0 8.0 0.00 0.00 0.00 64 1015.4
20260904144008 86 191 3.0 10.0 0.00 0.00 0.00 66 1015.4
20260904143517 85 239 4.0 10.0 0.00 0.00 0.00 65 1015.3
20260904143032 85 216 4.0 10.0 0.00 0.00 0.00 66 1015.5
20260904142519 84 222 6.0 10.0 0.00 0.00 0.00 67 1015.5
20260904142020 84 223 2.0 9.0 0.00 0.00 0.00 67 1015.5
20260904141517 84 235 4.0 9.0 0.00 0.00 0.00 67 1015.5
20260904141017 84 225 3.0 8.0 0.00 0.00 0.00 68 1015.5
20260904140513 84 221 2.0 7.0 0.00 0.00 0.00 69 1015.4
20260904140011 83 214 1.0 7.0 0.00 0.00 0.00 70 1015.4
20260904135518 83 184 2.0 7.0 0.00 0.00 0.00 70 1015.4
20260904135018 83 200 4.0 7.0 0.00 0.00 0.00 70 1015.3
20260904134554 82 214 3.0 8.0 0.00 0.00 0.00 71 1015.3
20260904134015 82 217 1.0 8.0 0.00 0.00 0.00 72 1015.4
20260904133512 81 219 4.0 8.0 0.00 0.00 0.00 73 1015.3
20260904133029 81 189 1.0 7.0 0.00 0.00 0.00 74 1015.3
20260904132514 80 215 4.0 9.0 0.00 0.00 0.00 74 1015.2
20260904132008 80 219 3.0 9.0 0.00 0.00 0.00 75 1015.2
20260904131532 79 198 3.0 9.0 0.00 0.00 0.00 75 1015.1
20260904131011 79 183 4.0 9.0 0.00 0.00 0.00 76 1015.0
20260904130518 78 178 2.0 7.0 0.00 0.00 0.00 76 1015.1
20260904130029 78 183 3.0 8.0 0.00 0.00 0.00 77 1015.1
20260904125512 78 260 3.0 8.0 0.00 0.00 0.00 77 1015.0
20260904125016 77 216 5.0 8.0 0.00 0.00 0.00 77 1015.0
20260904124527 77 216 2.0 5.0 0.00 0.00 0.00 77 1014.9
20260904124012 77 204 2.0 5.0 0.00 0.00 0.00 77 1014.9
20260904123515 77 164 3.0 6.0 0.00 0.00 0.00 77 1014.9
20260904123025 77 210 2.0 6.0 0.00 0.00 0.00 77 1014.9
20260904122516 77 204 4.0 9.0 0.00 0.00 0.00 77 1014.9
20260904122014 77 204 3.0 9.0 0.00 0.00 0.00 77 1014.7
20260904121523 77 180 2.0 9.0 0.00 0.00 0.00 77 1014.7
20260904121018 77 214 2.0 8.0 0.00 0.00 0.00 78 1014.7
20260904120515 77 229 3.0 8.0 0.00 0.00 0.00 78 1014.6
20260904120022 77 175 3.0 6.0 0.00 0.00 0.00 78 1014.6
20260904115518 77 239 3.0 8.0 0.00 0.00 0.00 78 1014.7
20260904115015 77 219 2.0 8.0 0.00 0.00 0.00 78 1014.7
20260904114534 77 215 1.0 4.0 0.00 0.00 0.00 79 1014.7
20260904114020 77 225 2.0 4.0 0.00 0.00 0.00 79 1014.6
20260904113514 77 200 1.0 4.0 0.00 0.00 0.00 79 1014.6
20260904113034 77 216 2.0 7.0 0.00 0.00 0.00 79 1014.5
20260904112516 77 204 3.0 7.0 0.00 0.00 0.00 79 1014.5
20260904112012 77 212 3.0 5.0 0.00 0.00 0.00 79 1014.4
20260904111530 77 219 1.0 4.0 0.00 0.00 0.00 79 1014.4
20260904111003 77 222 2.0 5.0 0.00 0.00 0.00 79 1014.4
20260904110519 77 220 2.0 5.0 0.00 0.00 0.00 79 1014.4
20260904110030 77 214 2.0 4.0 0.00 0.00 0.00 79 1014.4
20260904105520 77 218 1.0 6.0 0.00 0.00 0.00 79 1014.4
20260904105011 77 206 1.0 6.0 0.00 0.00 0.00 79 1014.4
20260904104504 77 288 2.0 4.0 0.00 0.00 0.00 79 1014.4
20260904104012 77 192 0.0 3.0 0.00 0.00 0.00 79 1014.3
20260904103508 77 217 2.0 3.0 0.00 0.00 0.00 79 1014.3
20260904103005 77 241 0.0 3.0 0.00 0.00 0.00 78 1014.3
20260904102510 77 243 1.0 3.0 0.00 0.00 0.00 78 1014.2
20260904102006 77 231 0.0 2.0 0.00 0.00 0.00 77 1014.2
20260904101529 77 231 0.0 2.0 0.00 0.00 0.00 77 1014.1
20260904101009 77 231 1.0 2.0 0.00 0.00 0.00 77 1014.1
20260904100506 77 234 1.0 2.0 0.00 0.00 0.00 77 1014.1
20260904100023 78 235 0.0 2.0 0.00 0.00 0.00 76 1014.0
20260904095513 78 233 0.0 2.0 0.00 0.00 0.00 76 1014.0
20260904095002 78 233 0.0 4.0 0.00 0.00 0.00 75 1014.0
20260904094534 78 212 0.0 4.0 0.00 0.00 0.00 75 1014.0
20260904094007 78 223 1.0 4.0 0.00 0.00 0.00 75 1013.9
20260904093515 78 214 1.0 4.0 0.00 0.00 0.00 75 1013.9
20260904093020 78 213 1.0 4.0 0.00 0.00 0.00 75 1013.9
20260904092510 78 229 2.0 3.0 0.00 0.00 0.00 74 1013.9
20260904092013 78 218 0.0 4.0 0.00 0.00 0.00 74 1013.9
20260904091512 78 219 1.0 4.0 0.00 0.00 0.00 74 1013.8
20260904091003 78 213 2.0 4.0 0.00 0.00 0.00 74 1013.8
20260904090511 78 213 1.0 3.0 0.00 0.00 0.00 74 1013.7
20260904090028 79 211 1.0 3.0 0.00 0.00 0.00 74 1013.6
20260904085513 79 204 1.0 4.0 0.00 0.00 0.00 73 1013.7
20260904085012 79 216 1.0 4.0 0.00 0.00 0.00 73 1013.6
20260904084508 79 211 1.0 4.0 0.00 0.00 0.00 73 1013.6
20260904084016 79 205 2.0 4.0 0.00 0.00 0.00 73 1013.6
20260904083511 79 204 2.0 4.0 0.00 0.00 0.00 73 1013.6
20260904083103 79 209 1.0 5.0 0.00 0.00 0.00 73 1013.5
20260904082516 78 208 2.0 5.0 0.00 0.00 0.00 73 1013.6
20260904082008 78 221 2.0 4.0 0.00 0.00 0.00 73 1013.6
20260904081535 78 210 1.0 4.0 0.00 0.00 0.00 73 1013.5
20260904081009 78 206 2.0 4.0 0.00 0.00 0.00 73 1013.5
20260904080507 78 223 1.0 3.0 0.00 0.00 0.00 73 1013.5
20260904080028 78 223 1.0 3.0 0.00 0.00 0.00 73 1013.5
20260904075511 78 225 1.0 3.0 0.00 0.00 0.00 73 1013.5
20260904075015 78 221 0.0 3.0 0.00 0.00 0.00 73 1013.6
20260904074522 78 221 1.0 3.0 0.00 0.00 0.00 73 1013.6
20260904074007 78 221 2.0 3.0 0.00 0.00 0.00 73 1013.6
20260904073516 78 219 0.0 3.0 0.00 0.00 0.00 73 1013.6
20260904073024 78 219 1.0 3.0 0.00 0.00 0.00 73 1013.5
20260904072508 78 219 1.0 2.0 0.00 0.00 0.00 73 1013.6
20260904072023 79 219 1.0 3.0 0.00 0.00 0.00 73 1013.6
20260904071518 78 216 1.0 3.0 0.00 0.00 0.00 73 1013.6
20260904071018 79 218 0.0 2.0 0.00 0.00 0.00 73 1013.6
20260904070517 79 218 0.0 2.0 0.00 0.00 0.00 72 1013.6
20260904070024 79 218 0.0 2.0 0.00 0.00 0.00 72 1013.6
20260904065518 79 215 0.0 2.0 0.00 0.00 0.00 72 1013.7
20260904065014 79 215 0.0 2.0 0.00 0.00 0.00 72 1013.7
20260904064513 79 215 0.0 2.0 0.00 0.00 0.00 71 1013.7
20260904064017 79 215 0.0 3.0 0.00 0.00 0.00 71 1013.7
20260904063511 80 215 1.0 3.0 0.00 0.00 0.00 71 1013.7
20260904063034 80 219 1.0 3.0 0.00 0.00 0.00 71 1013.7
20260904062516 80 219 0.0 2.0 0.00 0.00 0.00 70 1013.7
20260904062008 80 219 0.0 4.0 0.00 0.00 0.00 70 1013.7
20260904061534 80 219 2.0 4.0 0.00 0.00 0.00 70 1013.6
20260904061012 80 220 2.0 5.0 0.00 0.00 0.00 70 1013.6
20260904060508 80 222 2.0 5.0 0.00 0.00 0.00 70 1013.6
20260904060033 80 223 1.0 4.0 0.00 0.00 0.00 70 1013.6
20260904055517 80 216 1.0 2.0 0.00 0.00 0.00 70 1013.6
20260904055017 80 216 1.0 2.0 0.00 0.00 0.00 70 1013.7
20260904054530 80 217 0.0 2.0 0.00 0.00 0.00 70 1013.6
20260904054013 80 217 0.0 3.0 0.00 0.00 0.00 69 1013.7
20260904053514 80 217 0.0 3.0 0.00 0.00 0.00 69 1013.6
20260904053041 80 230 1.0 3.0 0.00 0.00 0.00 69 1013.6
20260904052510 81 231 0.0 0.0 0.00 0.00 0.00 69 1013.5
20260904052017 81 231 0.0 1.0 0.00 0.00 0.00 68 1013.5
20260904051535 81 231 0.0 2.0 0.00 0.00 0.00 68 1013.5
20260904051018 81 231 1.0 2.0 0.00 0.00 0.00 68 1013.5
20260904050518 81 231 1.0 2.0 0.00 0.00 0.00 68 1013.5
20260904050024 81 231 1.0 3.0 0.00 0.00 0.00 67 1013.4
20260904045517 81 231 0.0 3.0 0.00 0.00 0.00 67 1013.4
20260904045013 82 245 1.0 2.0 0.00 0.00 0.00 67 1013.4
20260904044520 82 246 0.0 2.0 0.00 0.00 0.00 67 1013.5
20260904044005 82 246 0.0 2.0 0.00 0.00 0.00 66 1013.5
20260904043504 82 246 0.0 3.0 0.00 0.00 0.00 66 1013.5
20260904043016 82 246 1.0 3.0 0.00 0.00 0.00 66 1013.5
20260904042503 82 248 1.0 2.0 0.00 0.00 0.00 66 1013.5
20260904042012 82 248 1.0 3.0 0.00 0.00 0.00 66 1013.5
20260904041508 82 250 1.0 3.0 0.00 0.00 0.00 66 1013.5
20260904041004 82 244 0.0 3.0 0.00 0.00 0.00 65 1013.5
20260904040515 83 247 0.0 3.0 0.00 0.00 0.00 65 1013.4
20260904040009 83 256 2.0 3.0 0.00 0.00 0.00 65 1013.4
20260904035504 83 250 0.0 2.0 0.00 0.00 0.00 65 1013.4
20260904035010 83 255 0.0 2.0 0.00 0.00 0.00 64 1013.4
20260904034507 83 255 0.0 3.0 0.00 0.00 0.00 64 1013.3
20260904034010 83 255 0.0 3.0 0.00 0.00 0.00 64 1013.4
20260904033508 83 256 0.0 3.0 0.00 0.00 0.00 64 1013.3
20260904033005 83 255 1.0 3.0 0.00 0.00 0.00 63 1013.2
20260904032509 84 246 0.0 2.0 0.00 0.00 0.00 62 1013.2
20260904032004 84 246 0.0 2.0 0.00 0.00 0.00 62 1013.2
20260904031504 84 246 0.0 2.0 0.00 0.00 0.00 62 1013.2
20260904031007 84 246 0.0 2.0 0.00 0.00 0.00 61 1013.1
20260904030504 85 246 0.0 2.0 0.00 0.00 0.00 61 1013.0
20260904030025 85 246 0.0 2.0 0.00 0.00 0.00 60 1013.1
20260904025507 85 247 1.0 2.0 0.00 0.00 0.00 60 1013.0
20260904025004 86 249 0.0 2.0 0.00 0.00 0.00 59 1012.9
20260904024521 86 249 0.0 2.0 0.00 0.00 0.00 59 1012.8
20260904024006 86 249 0.0 2.0 0.00 0.00 0.00 58 1012.8
20260904023518 86 250 0.0 3.0 0.00 0.00 0.00 58 1012.7
20260904023014 87 244 0.0 3.0 0.00 0.00 0.00 57 1012.6
20260904022506 87 241 0.0 4.0 0.00 0.00 0.00 57 1012.5
20260904022012 87 240 1.0 4.0 0.00 0.00 0.00 56 1012.4
20260904021521 87 251 1.0 3.0 0.00 0.00 0.00 56 1012.4
20260904021003 88 250 2.0 4.0 0.00 0.00 0.00 56 1012.3
20260904020511 88 208 2.0 5.0 0.00 0.00 0.00 55 1012.3
20260904020010 88 207 1.0 7.0 0.00 0.00 0.00 55 1012.2
20260904015518 88 262 2.0 7.0 0.00 0.00 0.00 54 1012.1
20260904015010 89 210 3.0 6.0 0.00 0.00 0.00 54 1012.0
20260904014509 89 232 2.0 7.0 0.00 0.00 0.00 54 1012.0
20260904014017 89 232 3.0 7.0 0.00 0.00 0.00 53 1011.9
20260904013510 89 225 1.0 8.0 0.00 0.00 0.00 53 1011.9
20260904013009 89 224 2.0 8.0 0.00 0.00 0.00 52 1011.7
20260904012513 90 212 3.0 12.0 0.00 0.00 0.00 52 1011.6
20260904012009 90 260 4.0 12.0 0.00 0.00 0.00 51 1011.6
20260904011533 90 218 3.0 8.0 0.00 0.00 0.00 51 1011.5
20260904011010 91 219 2.0 7.0 0.00 0.00 0.00 50 1011.5
20260904010507 91 221 1.0 10.0 0.00 0.00 0.00 50 1011.5
20260904010026 91 208 5.0 10.0 0.00 0.00 0.00 49 1011.5
20260904005511 91 220 6.0 10.0 0.00 0.00 0.00 49 1011.4
20260904005005 92 206 3.0 10.0 0.00 0.00 0.00 49 1011.4
20260904004524 92 194 5.0 11.0 0.00 0.00 0.00 48 1011.4
20260904004007 92 219 6.0 11.0 0.00 0.00 0.00 48 1011.4
20260904003515 92 218 4.0 10.0 0.00 0.00 0.00 48 1011.4
20260904003020 92 208 4.0 12.0 0.00 0.00 0.00 48 1011.3
20260904002507 93 232 4.0 12.0 0.00 0.00 0.00 47 1011.3
20260904002017 93 213 6.0 12.0 0.00 0.00 0.00 47 1011.4
20260904001516 93 219 2.0 11.0 0.00 0.00 0.00 47 1011.4
20260904001006 93 225 4.0 12.0 0.00 0.00 0.00 47 1011.4
20260904000517 93 222 3.0 14.0 0.00 0.00 0.00 46 1011.3
20260904000031 94 237 4.0 16.0 0.00 0.00 0.00 46 1011.3
20260903235521 94 209 9.0 18.0 0.00 0.00 0.00 45 1011.3
20260903235015 95 233 7.0 18.0 0.00 0.00 0.00 45 1011.3
20260903234511 95 256 6.0 12.0 0.00 0.00 0.00 45 1011.3
20260903234020 95 227 5.0 12.0 0.00 0.00 0.00 44 1011.3
20260903233510 96 208 4.0 13.0 0.00 0.00 0.00 44 1011.3
20260903233009 96 221 6.0 17.0 0.00 0.00 0.00 44 1011.4
20260903232514 96 187 7.0 17.0 0.00 0.00 0.00 44 1011.4
20260903232008 96 235 6.0 16.0 0.00 0.00 0.00 44 1011.3
20260903231535 96 289 7.0 16.0 0.00 0.00 0.00 45 1011.3
20260903231011 96 234 5.0 21.0 0.00 0.00 0.00 44 1011.2
20260903230509 96 227 11.0 21.0 0.00 0.00 0.00 44 1011.3
20260903230041 96 208 6.0 16.0 0.00 0.00 0.00 44 1011.3
20260903225514 96 214 7.0 17.0 0.00 0.00 0.00 44 1011.3
20260903225007 96 221 6.0 17.0 0.00 0.00 0.00 44 1011.3
20260903224533 96 165 8.0 18.0 0.00 0.00 0.00 44 1011.4
20260903224008 96 219 6.0 17.0 0.00 0.00 0.00 45 1011.4
20260903223514 96 279 8.0 21.0 0.00 0.00 0.00 43 1011.5
20260903223027 96 212 11.0 21.0 0.00 0.00 0.00 44 1011.4
20260903222508 96 286 9.0 21.0 0.00 0.00 0.00 44 1011.4
20260903222016 96 229 8.0 21.0 0.00 0.00 0.00 44 1011.4
20260903221519 97 198 8.0 14.0 0.00 0.00 0.00 45 1011.3
20260903221008 97 206 8.0 13.0 0.00 0.00 0.00 45 1011.4
20260903220514 97 213 5.0 15.0 0.00 0.00 0.00 45 1011.4
20260903220025 97 235 7.0 16.0 0.00 0.00 0.00 45 1011.4
20260903215519 96 212 5.0 19.0 0.00 0.00 0.00 45 1011.4
20260903215016 96 208 9.0 19.0 0.00 0.00 0.00 45 1011.5
20260903214526 97 223 7.0 16.0 0.00 0.00 0.00 45 1011.5
20260903214014 97 203 7.0 17.0 0.00 0.00 0.00 45 1011.7
20260903213514 97 214 7.0 15.0 0.00 0.00 0.00 46 1011.8
20260903213012 96 231 6.0 17.0 0.00 0.00 0.00 47 1011.8
20260903212520 96 189 6.0 19.0 0.00 0.00 0.00 48 1011.8
20260903212010 96 223 11.0 20.0 0.00 0.00 0.00 47 1011.8
20260903211534 96 215 8.0 20.0 0.00 0.00 0.00 47 1011.9
20260903211014 96 233 5.0 16.0 0.00 0.00 0.00 48 1011.9
20260903210510 96 218 7.0 16.0 0.00 0.00 0.00 48 1011.9
20260903210030 96 200 8.0 14.0 0.00 0.00 0.00 48 1012.0
20260903205513 96 233 7.0 17.0 0.00 0.00 0.00 46 1012.0
20260903205009 96 218 7.0 17.0 0.00 0.00 0.00 46 1012.1
20260903204531 97 247 3.0 17.0 0.00 0.00 0.00 46 1012.1
20260903204010 96 168 7.0 14.0 0.00 0.00 0.00 47 1012.2
20260903203520 96 212 7.0 17.0 0.00 0.00 0.00 47 1012.3
20260903203027 96 164 5.0 18.0 0.00 0.00 0.00 47 1012.3
20260903202518 96 200 12.0 18.0 0.00 0.00 0.00 46 1012.4
20260903202018 96 258 5.0 17.0 0.00 0.00 0.00 46 1012.5
20260903201532 96 214 7.0 17.0 0.00 0.00 0.00 46 1012.6
20260903201019 96 218 9.0 16.0 0.00 0.00 0.00 46 1012.6
20260903200521 96 185 7.0 16.0 0.00 0.00 0.00 47 1012.4
20260903200021 97 219 7.0 13.0 0.00 0.00 0.00 47 1012.5